[[{"header":{"parameterUnit":"m.s-1","parameterCategory":1,"la1":30.2991,"la2":30.254,"lo1":-89.0895,"lo2":-89.0444,"dy":0.0017,"dx":0.0017,"nx":28,"ny":28,"refTime":"2024-05-15T09:00:00:Z","depth":0,"parameterNumber":2,"parameterNumberName":"U-component_of_WINDS"},"data":[0,0,0,0,0,0,0,0,0,0,0,0,0,0,0,0,0,0,0,0,0,0,0,0,0,0,0,0,0,0,0,0,0,0,0,0,0,0,0,0,0,0,0,0,0,0,0,0,0,0,0,0,0,0,0,0,0,0,-0.5145,-0.5144,0,-0.5075,-0.5074,-0.5074,-0.5094,-0.5095,-0.5097,-0.5098,-0.502,-0.5017,-0.5014,0,0,0,0,0,0,0,0,0,0,0,0,0,-0.5288,-0.5285,-0.5145,-0.5144,-0.5143,-0.5075,-0.5074,-0.5073,-0.5094,-0.5096,-0.5097,-0.5099,-0.5022,-0.5017,-0.5013,0,0,0,0,0,0,0,0,0,0,0,0,0,-0.5223,-0.5285,-0.5145,-0.5145,-0.5144,-0.5076,-0.5074,-0.5073,-0.5093,-0.5096,-0.5098,-0.51,-0.5023,-0.5018,-0.5013,-0.4937,0,0,-0.4997,-0.4995,0,0,0,0,0,0,0,0,-0.5226,-0.5217,-0.5146,-0.5145,-0.5144,-0.5096,-0.5096,-0.5027,-0.5093,-0.5113,-0.5098,-0.5101,-0.5043,-0.5037,-0.5019,-0.4934,-0.493,-0.4997,-0.4993,-0.4991,-0.499,0,0,0,0,0,0,0,-0.5231,-0.5221,-0.5117,-0.5145,-0.5144,-0.5146,-0.514,-0.5083,-0.5066,-0.5111,-0.5112,-0.5104,-0.5043,-0.5023,-0.5017,-0.4929,-0.4997,-0.4992,-0.4989,-0.4987,-0.4777,-0.4774,0,0,0,0,0,0,-0.5237,-0.5224,-0.5119,-0.5115,-0.5192,-0.5142,-0.5134,-0.5109,-0.5067,-0.5063,-0.5102,-0.5105,-0.5031,-0.5023,-0.5014,-0.4921,-0.4991,-0.4987,-0.4984,-0.4779,-0.4776,-0.4773,0,0,0,0,0,0,-0.524,-0.5228,-0.5122,-0.517,-0.5157,-0.5137,-0.5108,-0.5106,-0.5087,-0.5061,-0.5057,-0.5086,-0.5033,-0.5021,-0.4956,-0.4919,-0.4984,-0.498,-0.4782,-0.4778,-0.4775,-0.4736,0,0,0,0,0,0,-0.5244,-0.5229,-0.5201,-0.5169,-0.5154,-0.5067,-0.5106,-0.5103,-0.5079,-0.5082,-0.5044,-0.504,-0.5033,-0.4964,-0.4951,-0.4913,-0.4975,-0.4785,-0.478,-0.4776,-0.474,-0.4731,-0.4723,0,0,0,0,0,-0.5249,-0.5192,-0.52,-0.5187,-0.512,-0.5065,-0.5056,-0.5052,-0.5076,-0.5047,-0.503,-0.5041,-0.4926,-0.4957,-0.4943,-0.4902,-0.4787,-0.4782,-0.4776,-0.4744,-0.4733,-0.4723,0,0,0,0,0,0,-0.5217,-0.5188,-0.5196,-0.5127,-0.5099,-0.5069,-0.5032,-0.504,-0.5003,-0.5007,-0.5002,-0.4993,-0.4925,-0.4908,-0.4943,-0.4826,-0.486,-0.4851,-0.484,-0.4829,-0.4821,-0.4825,-0.4971,0,0,0,0,0,-0.5203,-0.5163,-0.5138,-0.508,-0.5065,-0.5051,-0.5027,-0.5027,-0.4996,-0.4983,-0.4962,-0.4929,-0.4886,-0.4857,-0.4815,-0.4739,-0.4729,-0.4704,-0.4695,-0.4688,-0.468,-0.4635,-0.4623,-0.4755,-0.4755,-0.4755,0,0,-0.5171,-0.515,-0.5125,-0.5073,-0.5051,-0.5007,-0.5041,-0.4993,-0.496,-0.4975,-0.4912,-0.4895,-0.4859,-0.4787,-0.4754,-0.477,-0.4642,-0.4681,-0.4676,-0.4671,-0.4628,-0.4616,-0.4605,-0.4751,-0.4752,-0.4752,0,0,-0.5091,-0.5073,-0.5021,-0.4999,-0.4966,-0.4957,-0.4944,-0.4913,-0.4903,-0.484,-0.485,-0.481,-0.4735,-0.4708,-0.4685,-0.4595,-0.4603,-0.4581,-0.4536,-0.4493,-0.4482,-0.4473,-0.4438,-0.4426,-0.4574,-0.4574,-0.4574,0,-0.5056,-0.4993,-0.4993,-0.4945,-0.492,-0.4935,-0.488,-0.4858,-0.4812,-0.4794,-0.4813,-0.4719,-0.4696,-0.4617,-0.4595,-0.4577,-0.456,-0.4584,-0.4484,-0.4475,-0.4466,-0.4433,-0.442,-0.4571,-0.4571,-0.4572,-0.4572,0,-0.4949,-0.4905,-0.4867,-0.4824,-0.4796,-0.4745,-0.4735,-0.4706,-0.4708,-0.4696,-0.4631,-0.4604,-0.4556,-0.4538,-0.4539,-0.4458,-0.4469,-0.4487,-0.4519,-0.4451,-0.4419,-0.4407,-0.4567,-0.4568,-0.4569,-0.457,0,0,-0.4845,-0.4804,-0.479,-0.477,-0.4735,-0.4699,-0.4648,-0.4604,-0.4578,-0.4546,-0.4501,-0.4438,-0.4453,-0.4427,-0.4425,-0.4387,-0.4314,-0.4409,-0.4408,-0.439,-0.4221,-0.4206,-0.4191,-0.4321,-0.4319,-0.4317,-0.4223,0,-0.476,-0.4672,-0.4671,-0.4589,-0.4547,-0.456,-0.4515,-0.4487,-0.4475,-0.4436,-0.4421,-0.4376,-0.4402,-0.4385,-0.4349,-0.4331,-0.428,-0.4338,-0.4275,-0.4273,-0.4282,-0.4175,-0.4159,-0.4072,-0.4211,-0.4209,-0.4207,0,-0.4648,-0.4615,-0.4529,-0.4499,-0.4481,-0.4441,-0.44,-0.4363,-0.4331,-0.4325,-0.4295,-0.4299,-0.4244,-0.4281,-0.4204,-0.4243,-0.4218,-0.4205,-0.4201,-0.4193,-0.4234,-0.4161,-0.4045,-0.4031,-0.4188,-0.419,-0.4191,0,-0.4578,-0.4511,-0.4451,-0.4434,-0.4398,-0.4369,-0.4352,-0.4323,-0.4296,-0.4259,-0.4241,-0.4198,-0.4173,-0.4138,-0.4129,-0.4158,-0.4051,-0.4088,-0.4041,-0.4041,-0.4015,-0.4016,-0.389,-0.4004,-0.4004,-0.4004,-0.4005,0,-0.4481,-0.4427,-0.4418,-0.4381,-0.4321,-0.4319,-0.4259,-0.4244,-0.4218,-0.4176,-0.4185,-0.4144,-0.4136,-0.4094,-0.4086,-0.4021,-0.4011,-0.4002,-0.4,-0.3999,-0.4,-0.398,-0.3985,-0.4001,-0.4002,-0.4002,-0.4003,0,-0.439,-0.4383,-0.4318,-0.429,-0.4282,-0.4238,-0.4213,-0.4176,-0.4165,-0.4112,-0.4099,-0.4081,-0.4032,-0.402,-0.3961,-0.3955,-0.3878,-0.3883,-0.3889,-0.3889,-0.3841,-0.3845,-0.3696,-0.3675,-0.3805,-0.3804,-0.3803,0,-0.4328,-0.4287,-0.4255,-0.4229,-0.4212,-0.4169,-0.4142,-0.4139,-0.411,-0.407,-0.4037,-0.3989,-0.395,-0.387,-0.385,-0.3804,-0.3806,-0.3757,-0.3799,-0.3799,-0.3802,-0.3803,-0.3798,-0.3748,-0.3747,-0.3746,-0.3745,0,-0.4216,-0.4215,-0.4177,-0.4137,-0.4105,-0.4073,-0.4043,-0.402,-0.4012,-0.3979,-0.3929,-0.3899,-0.3839,-0.379,-0.3744,-0.3724,-0.3731,-0.3732,-0.3718,-0.3716,-0.372,-0.3714,-0.3864,-0.3735,-0.3736,-0.3736,-0.3737,-0.3737,-0.4136,-0.41,-0.4072,-0.4029,-0.4006,-0.3977,-0.3941,-0.3926,-0.3886,-0.3838,-0.3838,-0.3783,-0.3751,-0.369,-0.3667,-0.3623,-0.3637,-0.3618,-0.3612,-0.3607,-0.3601,-0.373,-0.3615,-0.3615,-0.3615,-0.3615,-0.3615,0,-0.4023,-0.4006,-0.3966,-0.3924,-0.3889,-0.3904,-0.387,-0.3839,-0.3792,-0.3762,-0.3724,-0.3666,-0.3619,-0.3596,-0.3548,-0.3516,-0.3518,-0.3504,-0.3504,-0.3499,-0.3592,-0.3608,-0.3503,-0.3503,-0.3503,-0.3503,-0.3503,-0.3503,-0.3959,-0.3898,-0.3893,-0.382,-0.3803,-0.3751,-0.373,-0.3703,-0.3679,-0.3615,-0.3576,-0.3563,-0.3535,-0.3485,-0.3441,-0.3436,-0.3416,-0.3399,-0.3394,-0.3481,-0.3493,-0.3503,-0.3518,-0.3395,-0.3395,-0.3304,-0.3303,-0.3303]},{"header":{"parameterUnit":"m.s-1","parameterCategory":1,"la1":30.2991,"la2":30.254,"lo1":-89.0895,"lo2":-89.0444,"dy":0.0017,"dx":0.0017,"nx":28,"ny":28,"refTime":"2024-05-15T09:00:00:Z","depth":0,"parameterNumber":3,"parameterNumberName":"V-component_of_WINDS"},"data":[0,0,0,0,0,0,0,0,0,0,0,0,0,0,0,0,0,0,0,0,0,0,0,0,0,0,0,0,0,0,0,0,0,0,0,0,0,0,0,0,0,0,0,0,0,0,0,0,0,0,0,0,0,0,0,0,0,0,1.0223,1.0223,0,1.0224,1.0224,1.0224,1.017,1.0168,1.0167,1.0166,1.0166,1.0168,1.0169,0,0,0,0,0,0,0,0,0,0,0,0,0,1.0175,1.0176,1.0223,1.0223,1.0223,1.0224,1.0224,1.0224,1.017,1.0168,1.0167,1.0165,1.0166,1.0167,1.0169,0,0,0,0,0,0,0,0,0,0,0,0,0,1.0188,1.0177,1.0223,1.0196,1.0194,1.0224,1.0224,1.0224,1.017,1.0168,1.0166,1.0164,1.0165,1.0167,1.0169,1.0224,0,0,1.0175,1.0176,0,0,0,0,0,0,0,0,1.0187,1.019,1.02,1.0198,1.0196,1.0194,1.0207,1.0224,1.0171,1.0179,1.0166,1.0163,1.0177,1.0178,1.0183,1.0224,1.0224,1.0176,1.0177,1.0178,1.0178,0,0,0,0,0,0,0,1.0187,1.0189,1.0223,1.02,1.0198,1.0184,1.0184,1.021,1.019,1.0178,1.0175,1.0175,1.0176,1.0181,1.0183,1.0224,1.0175,1.0177,1.0179,1.0179,1.0311,1.0313,0,0,0,0,0,0,1.0189,1.0189,1.0223,1.0223,1.0186,1.0187,1.0186,1.0197,1.019,1.0187,1.0177,1.0173,1.0179,1.018,1.0182,1.0246,1.0178,1.0179,1.0181,1.0308,1.0311,1.0314,0,0,0,0,0,0,1.0189,1.0193,1.0223,1.0205,1.0208,1.019,1.0202,1.0198,1.0204,1.0189,1.0185,1.0186,1.0177,1.018,1.0214,1.0246,1.018,1.0182,1.0306,1.0309,1.0312,1.0375,0,0,0,0,0,0,1.0187,1.0193,1.0214,1.0206,1.0209,1.0255,1.0204,1.02,1.0207,1.0202,1.0197,1.0194,1.0176,1.0212,1.0216,1.0247,1.0184,1.0303,1.0307,1.0311,1.037,1.038,1.0389,0,0,0,0,0,1.0186,1.0231,1.0215,1.0219,1.0235,1.0257,1.0259,1.0237,1.021,1.0231,1.0221,1.0194,1.0241,1.0216,1.022,1.0252,1.0301,1.0306,1.0311,1.0366,1.0378,1.0388,0,0,0,0,0,0,1.0243,1.023,1.0212,1.0256,1.0258,1.0248,1.0273,1.0251,1.0261,1.0255,1.0228,1.0227,1.0266,1.0263,1.0234,1.0305,1.0266,1.0273,1.0306,1.0318,1.0327,1.0327,1.0185,0,0,0,0,0,1.0261,1.028,1.0268,1.0308,1.031,1.0292,1.0301,1.0284,1.0285,1.0285,1.0278,1.0281,1.0296,1.0307,1.032,1.0369,1.0367,1.0394,1.0403,1.0411,1.0417,1.0442,1.0454,1.033,1.033,1.033,0,0,1.0298,1.0293,1.0307,1.0319,1.0319,1.034,1.0293,1.0317,1.0331,1.0289,1.0321,1.0316,1.0317,1.0359,1.0377,1.0357,1.045,1.0417,1.0424,1.0425,1.0449,1.046,1.0471,1.0334,1.0333,1.0333,0,0,1.0376,1.0374,1.0408,1.0408,1.0408,1.0396,1.0404,1.0397,1.0392,1.0424,1.0393,1.041,1.0437,1.0439,1.0443,1.0522,1.0497,1.0527,1.0576,1.0601,1.0611,1.062,1.0648,1.0658,1.0533,1.0533,1.0533,0,1.0422,1.0452,1.0428,1.0454,1.046,1.0422,1.0456,1.0458,1.0462,1.0467,1.0445,1.0478,1.0476,1.0518,1.0537,1.0542,1.055,1.0527,1.0612,1.062,1.0627,1.0654,1.0665,1.0537,1.0536,1.0536,1.0535,0,1.0509,1.053,1.0557,1.0562,1.0571,1.0601,1.0581,1.0593,1.0576,1.0566,1.0599,1.0595,1.0606,1.0615,1.0598,1.0655,1.0642,1.0616,1.0577,1.0643,1.0668,1.0678,1.0542,1.054,1.0539,1.0538,0,0,1.0623,1.0614,1.0625,1.0627,1.0624,1.064,1.0668,1.0679,1.069,1.0694,1.0717,1.0741,1.0717,1.0722,1.0704,1.0727,1.0789,1.0698,1.0697,1.0715,1.0852,1.0872,1.0884,1.0773,1.0775,1.0776,1.0852,0,1.0699,1.0746,1.0725,1.0774,1.0793,1.0758,1.0782,1.0783,1.0774,1.0789,1.0779,1.0797,1.0764,1.0766,1.0787,1.0778,1.0817,1.0772,1.0794,1.0795,1.0795,1.0896,1.0917,1.0989,1.0861,1.0863,1.0864,0,1.0793,1.0802,1.0853,1.0847,1.0854,1.0876,1.0885,1.09,1.09,1.0892,1.0898,1.0875,1.0902,1.0863,1.0899,1.0869,1.0877,1.0874,1.0876,1.0877,1.0834,1.0901,1.1011,1.1022,1.0879,1.0877,1.0876,0,1.0872,1.0896,1.0929,1.0932,1.0926,1.0942,1.094,1.0938,1.0946,1.0954,1.0959,1.097,1.0976,1.0985,1.0966,1.0939,1.1005,1.0964,1.1,1.1,1.1015,1.1015,1.1129,1.102,1.102,1.102,1.102,0,1.0959,1.0991,1.0965,1.0985,1.1021,1.0997,1.1033,1.1027,1.1025,1.1044,1.1014,1.1033,1.1007,1.1023,1.1008,1.1041,1.1043,1.1038,1.1034,1.1041,1.1041,1.1045,1.104,1.1023,1.1022,1.1022,1.1021,0,1.1052,1.1036,1.107,1.1061,1.1059,1.1086,1.1078,1.1097,1.1086,1.1111,1.1115,1.1098,1.1115,1.1097,1.1113,1.1104,1.1147,1.1136,1.1148,1.1144,1.1181,1.1178,1.1302,1.1317,1.1199,1.12,1.1201,0,1.1109,1.1133,1.1127,1.1137,1.1137,1.1155,1.1163,1.114,1.1149,1.1151,1.117,1.1185,1.1195,1.1224,1.1214,1.1226,1.1214,1.1257,1.1216,1.1222,1.1215,1.1214,1.1216,1.1265,1.1267,1.1268,1.1269,0,1.1211,1.1202,1.1214,1.1225,1.1236,1.1242,1.1247,1.1257,1.1233,1.1246,1.1263,1.1271,1.1287,1.1302,1.1311,1.1309,1.1285,1.1282,1.129,1.1298,1.1304,1.1301,1.117,1.1279,1.1278,1.1277,1.1277,1.1276,1.1288,1.1308,1.1306,1.1322,1.1323,1.1328,1.1345,1.1336,1.135,1.1362,1.1347,1.1368,1.1368,1.1377,1.1378,1.1394,1.1376,1.1389,1.1392,1.1396,1.1401,1.1301,1.1396,1.1395,1.1395,1.1395,1.1395,0,1.1388,1.1386,1.14,1.1408,1.142,1.1396,1.14,1.1412,1.1431,1.1432,1.1443,1.1463,1.1477,1.1468,1.148,1.1495,1.1484,1.1499,1.1497,1.1497,1.1417,1.1408,1.1507,1.1507,1.1507,1.1507,1.1507,1.1507,1.1442,1.1475,1.1465,1.1498,1.1495,1.1516,1.152,1.1524,1.1525,1.1549,1.156,1.1554,1.1551,1.1563,1.1575,1.1571,1.1577,1.1596,1.1589,1.1514,1.1503,1.1492,1.1484,1.1598,1.1598,1.1668,1.1669,1.1669]}]]